EDT,Max TemperatureF,Mean TemperatureF,Min TemperatureF,Max Dew PointF,MeanDew PointF,Min DewpointF,Max Humidity, Mean Humidity, Min Humidity, Max Sea Level PressureIn, Mean Sea Level PressureIn, Min Sea Level PressureIn, Max VisibilityMiles, Mean VisibilityMiles, Min VisibilityMiles, Max Wind SpeedMPH, Mean Wind SpeedMPH, Max Gust SpeedMPH,PrecipitationIn, CloudCover, Events, WindDirDegrees
2011-9-1,75,64,53,64,58,52,94,81,61,30.01,29.96,29.85,10,6,0,13,4,,0.00,3,,162
2011-9-2,84,76,69,73,69,61,94,78,55,29.87,29.77,29.70,10,8,3,17,8,24,0.01,2,,239
2011-9-3,69,66,62,63,59,55,88,79,68,29.94,29.89,29.79,10,10,7,13,4,,0.07,7,Thunderstorm,114
2011-9-4,66,58,51,63,51,43,94,76,56,30.04,29.85,29.74,10,10,5,20,11,28,0.03,4,,311
2011-9-5,60,53,46,39,37,36,76,57,39,30.20,30.17,30.10,10,10,9,16,6,21,0.00,4,,355
2011-9-6,60,46,32,46,38,28,87,70,45,30.28,30.24,30.21,10,10,7,12,3,,0.00,0,,127
2011-9-7,73,54,35,52,42,32,93,66,41,30.29,30.25,30.19,10,9,1,9,3,,0.00,0,,185
2011-9-8,78,62,46,59,50,41,93,68,29,30.24,30.19,30.10,10,10,1,12,5,17,0.00,0,,1
2011-9-9,78,60,41,52,46,37,93,65,36,30.09,30.04,29.97,10,9,1,10,3,,0.00,0,,234
2011-9-10,75,63,51,59,53,48,88,73,53,30.08,30.04,30.01,10,8,1,12,5,,0.00,0,,70
2011-9-11,78,64,51,64,57,48,94,77,57,30.00,29.92,29.82,10,8,0,16,3,30,0.41,4,Thunderstorm,206
2011-9-12,73,62,51,63,55,48,94,77,60,29.89,29.86,29.76,10,9,0,13,5,17,0.00,0,,261
2011-9-13,64,56,48,45,42,37,76,57,39,29.90,29.89,29.88,10,10,10,13,7,,0.00,2,,227
2011-9-14,55,50,44,43,34,27,82,55,38,30.14,30.02,29.88,10,10,10,17,10,25,0.00,4,,308
2011-9-15,55,44,32,34,30,27,81,63,38,30.34,30.28,30.19,10,10,10,16,8,28,0.00,3,,315
2011-9-16,60,44,28,41,33,25,87,67,39,30.41,30.36,30.29,10,10,10,14,4,18,0.00,1,,188
2011-9-17,60,45,30,45,35,25,87,67,48,30.40,30.36,30.31,10,10,7,13,4,,0.00,1,,155
2011-9-18,64,50,37,52,47,34,87,68,56,30.30,30.22,30.05,10,10,10,17,7,24,0.00,1,,166
2011-9-19,69,63,57,55,52,43,94,73,40,29.99,29.89,29.84,10,9,4,13,8,18,0.39,6,,294
2011-9-20,66,52,37,57,46,34,87,80,68,30.02,29.98,29.89,10,10,5,16,4,22,0.01,1,,175
2011-9-21,62,60,57,57,50,45,82,67,52,29.86,29.76,29.73,10,10,9,18,13,25,0.02,5,,202
2011-9-22,53,50,46,46,40,36,82,69,51,30.07,29.97,29.86,10,10,10,14,8,17,0.00,7,,288
2011-9-23,57,52,46,45,42,37,87,70,48,30.13,30.10,30.05,10,10,10,12,4,,0.00,5,,234
2011-9-24,59,50,41,54,45,36,94,84,77,30.07,30.04,29.99,10,8,1,8,5,,0.05,7,,328
2011-9-25,64,56,48,54,49,45,94,78,56,30.12,30.07,29.99,10,7,0,16,5,23,0.00,7,,63
2011-9-26,62,58,55,57,52,48,88,78,63,29.98,29.87,29.77,10,10,6,20,9,26,0.15,8,,46
2011-9-27,64,60,55,55,52,48,94,80,56,29.86,29.82,29.79,10,9,1,9,4,,0.11,6,,193
2011-9-28,66,54,42,52,46,39,93,77,49,29.88,29.84,29.79,10,6,0,10,2,,0.00,3,,122
2011-9-29,60,52,44,54,48,39,93,86,77,29.77,29.58,29.38,10,6,0,15,3,23,0.38,5,,227
2011-9-30,48,45,42,43,35,30,87,66,54,30.17,29.95,29.66,10,10,9,22,16,36,0.00,7,,351